Time,TemperatureF,DewpointF,PressureIn,WindDirection,WindDirectionDegrees,WindSpeedMPH,WindSpeedGustMPH,Humidity,HourlyPrecipIn,Conditions,Clouds,dailyrainin,SoftwareType,DateUTC
2013-10-02 00:00:00,54.8,51.9,29.94,ENE,77,0.0,6.0,90,0.00,,,0.00,Wunderground v.1.15,2013-10-02 05:00:00,
2013-10-02 00:05:00,54.7,51.8,29.94,ENE,77,0.0,6.0,90,0.00,,,0.00,Wunderground v.1.15,2013-10-02 05:05:00,
2013-10-02 00:10:00,54.6,51.7,29.94,ENE,77,0.0,6.0,90,0.00,,,0.00,Wunderground v.1.15,2013-10-02 05:10:00,
2013-10-02 00:16:00,54.5,51.6,29.94,ENE,77,0.0,6.0,90,0.00,,,0.00,Wunderground v.1.15,2013-10-02 05:16:00,
2013-10-02 00:21:00,54.4,51.5,29.94,ENE,77,0.0,6.0,90,0.00,,,0.00,Wunderground v.1.15,2013-10-02 05:21:00,
2013-10-02 00:27:00,54.2,51.3,29.94,ENE,77,0.0,6.0,90,0.00,,,0.00,Wunderground v.1.15,2013-10-02 05:27:00,
2013-10-02 00:32:00,54.1,51.2,29.94,ENE,77,0.0,6.0,90,0.00,,,0.00,Wunderground v.1.15,2013-10-02 05:32:00,
2013-10-02 00:37:00,54.1,51.2,29.94,ENE,77,0.0,6.0,90,0.00,,,0.00,Wunderground v.1.15,2013-10-02 05:37:00,
2013-10-02 00:43:00,54.1,51.5,29.94,ENE,77,0.0,6.0,91,0.00,,,0.00,Wunderground v.1.15,2013-10-02 05:43:00,
2013-10-02 00:48:00,54.0,51.4,29.94,ENE,77,0.0,6.0,91,0.00,,,0.00,Wunderground v.1.15,2013-10-02 05:48:00,
2013-10-02 00:54:00,54.0,51.4,29.94,ENE,77,0.0,6.0,91,0.00,,,0.00,Wunderground v.1.15,2013-10-02 05:54:00,
2013-10-02 00:59:00,53.9,51.3,29.94,ENE,77,0.0,6.0,91,0.00,,,0.00,Wunderground v.1.15,2013-10-02 05:59:00,
2013-10-02 01:05:00,53.8,51.2,29.94,ENE,77,0.0,6.0,91,0.00,,,0.00,Wunderground v.1.15,2013-10-02 06:05:00,
2013-10-02 01:10:00,53.7,51.1,29.94,ENE,77,0.0,6.0,91,0.00,,,0.00,Wunderground v.1.15,2013-10-02 06:10:00,
2013-10-02 01:15:00,53.6,51.0,29.94,ENE,77,0.0,6.0,91,0.00,,,0.00,Wunderground v.1.15,2013-10-02 06:15:00,
2013-10-02 01:21:00,53.5,51.0,29.94,ENE,77,0.0,0.0,91,0.00,,,0.00,weatherlink.com 1.10,2013-10-02 06:21:00,
2013-10-02 01:26:00,53.5,50.9,29.94,ENE,77,0.0,6.0,91,0.00,,,0.00,Wunderground v.1.15,2013-10-02 06:26:00,
2013-10-02 01:31:00,53.4,50.8,29.94,ENE,77,0.0,6.0,91,0.00,,,0.00,Wunderground v.1.15,2013-10-02 06:31:00,
2013-10-02 01:37:00,53.3,50.7,29.94,ENE,77,0.0,6.0,91,0.00,,,0.00,Wunderground v.1.15,2013-10-02 06:37:00,
2013-10-02 01:42:00,53.4,50.8,29.94,ENE,77,0.0,6.0,91,0.00,,,0.00,Wunderground v.1.15,2013-10-02 06:42:00,
2013-10-02 01:47:00,53.4,50.8,29.94,ENE,77,0.0,6.0,91,0.00,,,0.00,Wunderground v.1.15,2013-10-02 06:47:00,
2013-10-02 01:53:00,53.4,51.0,29.94,ENE,77,0.0,0.0,92,0.00,,,0.00,weatherlink.com 1.10,2013-10-02 06:53:00,
2013-10-02 01:58:00,53.3,51.0,29.94,ENE,77,0.0,6.0,92,0.00,,,0.00,Wunderground v.1.15,2013-10-02 06:58:00,
2013-10-02 02:04:00,53.3,51.0,29.94,ENE,77,0.0,6.0,92,0.00,,,0.00,Wunderground v.1.15,2013-10-02 07:04:00,
2013-10-02 02:09:00,53.2,50.9,29.94,ENE,77,0.0,6.0,92,0.00,,,0.00,Wunderground v.1.15,2013-10-02 07:09:00,
2013-10-02 02:15:00,53.2,50.9,29.94,ENE,77,0.0,6.0,92,0.00,,,0.00,Wunderground v.1.15,2013-10-02 07:15:00,
2013-10-02 02:20:00,53.1,50.8,29.94,ENE,77,0.0,6.0,92,0.00,,,0.00,Wunderground v.1.15,2013-10-02 07:20:00,
2013-10-02 02:25:00,53.0,50.7,29.94,ENE,77,0.0,6.0,92,0.00,,,0.00,Wunderground v.1.15,2013-10-02 07:25:00,
2013-10-02 02:30:00,53.0,50.7,29.94,ENE,77,0.0,6.0,92,0.00,,,0.00,Wunderground v.1.15,2013-10-02 07:30:00,
2013-10-02 02:36:00,52.9,51.0,29.94,ENE,77,0.0,0.0,92,0.00,,,0.00,weatherlink.com 1.10,2013-10-02 07:36:00,
2013-10-02 02:41:00,52.9,50.6,29.94,ENE,77,0.0,6.0,92,0.00,,,0.00,Wunderground v.1.15,2013-10-02 07:41:00,
2013-10-02 02:47:00,52.9,50.6,29.94,ENE,77,0.0,6.0,92,0.00,,,0.00,Wunderground v.1.15,2013-10-02 07:47:00,
2013-10-02 02:52:00,52.9,50.6,29.94,ENE,77,0.0,6.0,92,0.00,,,0.00,Wunderground v.1.15,2013-10-02 07:52:00,
2013-10-02 02:58:00,52.9,50.6,29.94,ENE,77,0.0,6.0,92,0.00,,,0.00,Wunderground v.1.15,2013-10-02 07:58:00,
2013-10-02 03:03:00,52.9,50.6,29.94,ENE,77,0.0,6.0,92,0.00,,,0.00,Wunderground v.1.15,2013-10-02 08:03:00,
2013-10-02 03:09:00,52.8,50.5,29.94,ENE,77,0.0,6.0,92,0.00,,,0.00,Wunderground v.1.15,2013-10-02 08:09:00,
2013-10-02 03:14:00,52.8,50.5,29.93,ENE,77,0.0,6.0,92,0.00,,,0.00,Wunderground v.1.15,2013-10-02 08:14:00,
2013-10-02 03:19:00,52.7,50.4,29.93,ENE,77,0.0,6.0,92,0.00,,,0.00,Wunderground v.1.15,2013-10-02 08:19:00,
2013-10-02 03:25:00,52.6,50.3,29.93,ENE,77,0.0,6.0,92,0.00,,,0.00,Wunderground v.1.15,2013-10-02 08:25:00,
2013-10-02 03:30:00,52.6,50.3,29.93,ENE,77,0.0,6.0,92,0.00,,,0.00,Wunderground v.1.15,2013-10-02 08:30:00,
2013-10-02 03:35:00,52.5,50.2,29.93,ENE,77,0.0,6.0,92,0.00,,,0.00,Wunderground v.1.15,2013-10-02 08:35:00,
2013-10-02 03:40:00,52.4,50.1,29.93,ENE,77,0.0,6.0,92,0.00,,,0.00,Wunderground v.1.15,2013-10-02 08:40:00,
2013-10-02 03:46:00,52.4,50.1,29.93,ENE,77,0.0,6.0,92,0.00,,,0.00,Wunderground v.1.15,2013-10-02 08:46:00,
2013-10-02 03:51:00,52.4,50.1,29.93,ENE,77,0.0,6.0,92,0.00,,,0.00,Wunderground v.1.15,2013-10-02 08:51:00,
2013-10-02 03:56:00,52.4,50.4,29.93,ENE,77,0.0,6.0,93,0.00,,,0.00,Wunderground v.1.15,2013-10-02 08:56:00,
2013-10-02 04:01:00,52.4,50.4,29.93,ENE,77,0.0,6.0,93,0.00,,,0.00,Wunderground v.1.15,2013-10-02 09:01:00,
2013-10-02 04:07:00,52.3,50.3,29.93,ENE,77,0.0,6.0,93,0.00,,,0.00,Wunderground v.1.15,2013-10-02 09:07:00,
2013-10-02 04:12:00,52.3,50.3,29.93,ENE,77,0.0,6.0,93,0.00,,,0.00,Wunderground v.1.15,2013-10-02 09:12:00,
2013-10-02 04:17:00,52.3,50.3,29.93,ENE,77,0.0,6.0,93,0.00,,,0.00,Wunderground v.1.15,2013-10-02 09:17:00,
2013-10-02 04:23:00,52.3,50.0,29.93,ENE,77,0.0,0.0,93,0.00,,,0.00,weatherlink.com 1.10,2013-10-02 09:23:00,
2013-10-02 04:28:00,52.2,50.2,29.93,ENE,77,0.0,6.0,93,0.00,,,0.00,Wunderground v.1.15,2013-10-02 09:28:00,
2013-10-02 04:33:00,52.2,50.2,29.93,ENE,77,0.0,6.0,93,0.00,,,0.00,Wunderground v.1.15,2013-10-02 09:33:00,
2013-10-02 04:38:00,52.1,50.1,29.93,ENE,77,0.0,6.0,93,0.00,,,0.00,Wunderground v.1.15,2013-10-02 09:38:00,
2013-10-02 04:44:00,52.1,50.1,29.93,ENE,77,0.0,6.0,93,0.00,,,0.00,Wunderground v.1.15,2013-10-02 09:44:00,
2013-10-02 04:49:00,52.1,50.1,29.93,ENE,77,0.0,6.0,93,0.00,,,0.00,Wunderground v.1.15,2013-10-02 09:49:00,
2013-10-02 04:55:00,51.9,49.9,29.93,ENE,77,0.0,6.0,93,0.00,,,0.00,Wunderground v.1.15,2013-10-02 09:55:00,
2013-10-02 05:00:00,51.8,49.8,29.93,ENE,77,0.0,6.0,93,0.00,,,0.00,Wunderground v.1.15,2013-10-02 10:00:00,
2013-10-02 05:06:00,51.8,49.8,29.93,ENE,77,0.0,6.0,93,0.00,,,0.00,Wunderground v.1.15,2013-10-02 10:06:00,
2013-10-02 05:11:00,51.7,49.7,29.93,ENE,77,0.0,6.0,93,0.00,,,0.00,Wunderground v.1.15,2013-10-02 10:11:00,
2013-10-02 05:17:00,51.7,49.7,29.93,ENE,77,0.0,6.0,93,0.00,,,0.00,Wunderground v.1.15,2013-10-02 10:17:00,
2013-10-02 05:22:00,51.7,49.7,29.93,ENE,77,0.0,6.0,93,0.00,,,0.00,Wunderground v.1.15,2013-10-02 10:22:00,
2013-10-02 05:27:00,51.7,49.7,29.93,ENE,77,0.0,6.0,93,0.00,,,0.00,Wunderground v.1.15,2013-10-02 10:27:00,
2013-10-02 05:33:00,51.7,49.7,29.93,ENE,77,0.0,6.0,93,0.00,,,0.00,Wunderground v.1.15,2013-10-02 10:33:00,
2013-10-02 05:38:00,51.6,49.6,29.93,ENE,77,0.0,6.0,93,0.00,,,0.00,Wunderground v.1.15,2013-10-02 10:38:00,
2013-10-02 05:43:00,51.6,49.6,29.93,ENE,77,0.0,6.0,93,0.00,,,0.00,Wunderground v.1.15,2013-10-02 10:43:00,
2013-10-02 05:49:00,51.6,49.6,29.93,ENE,77,0.0,6.0,93,0.00,,,0.00,Wunderground v.1.15,2013-10-02 10:49:00,
2013-10-02 05:54:00,51.7,49.7,29.93,ENE,77,0.0,6.0,93,0.00,,,0.00,Wunderground v.1.15,2013-10-02 10:54:00,
2013-10-02 05:59:00,51.7,49.7,29.93,ENE,77,0.0,6.0,93,0.00,,,0.00,Wunderground v.1.15,2013-10-02 10:59:00,
2013-10-02 06:05:00,51.8,49.8,29.93,ENE,77,0.0,6.0,93,0.00,,,0.00,Wunderground v.1.15,2013-10-02 11:05:00,
2013-10-02 06:10:00,51.8,50.0,29.93,ENE,77,0.0,0.0,94,0.00,,,0.00,weatherlink.com 1.10,2013-10-02 11:10:00,
2013-10-02 06:16:00,51.9,50.2,29.93,ENE,77,0.0,6.0,94,0.00,,,0.00,Wunderground v.1.15,2013-10-02 11:16:00,
2013-10-02 06:21:00,52.1,50.4,29.93,ENE,77,0.0,6.0,94,0.00,,,0.00,Wunderground v.1.15,2013-10-02 11:21:00,
2013-10-02 06:27:00,52.7,51.0,29.93,ENE,77,0.0,6.0,94,0.00,,,0.00,Wunderground v.1.15,2013-10-02 11:27:00,
2013-10-02 06:33:00,53.5,51.8,29.93,ENE,77,0.0,6.0,94,0.00,,,0.00,Wunderground v.1.15,2013-10-02 11:33:00,
2013-10-02 06:38:00,53.8,52.1,29.93,ENE,77,0.0,6.0,94,0.00,,,0.00,Wunderground v.1.15,2013-10-02 11:38:00,
2013-10-02 06:43:00,54.3,52.6,29.93,ENE,77,0.0,6.0,94,0.00,,,0.00,Wunderground v.1.15,2013-10-02 11:43:00,
2013-10-02 06:49:00,54.4,52.7,29.93,SSW,213,0.0,6.0,94,0.00,,,0.00,Wunderground v.1.15,2013-10-02 11:49:00,
2013-10-02 06:55:00,54.6,53.2,29.93,SSE,150,0.0,6.0,95,0.00,,,0.00,Wunderground v.1.15,2013-10-02 11:55:00,
2013-10-02 07:00:00,55.1,53.7,29.93,SSE,158,0.0,6.0,95,0.00,,,0.00,Wunderground v.1.15,2013-10-02 12:00:00,
2013-10-02 07:06:00,57.3,55.9,29.93,SSE,160,0.0,6.0,95,0.00,,,0.00,Wunderground v.1.15,2013-10-02 12:06:00,
2013-10-02 07:11:00,58.5,57.1,29.93,ESE,108,0.0,6.0,95,0.00,,,0.00,Wunderground v.1.15,2013-10-02 12:11:00,
2013-10-02 07:16:00,59.4,58.0,29.93,SE,129,0.0,6.0,95,0.00,,,0.00,Wunderground v.1.15,2013-10-02 12:16:00,
2013-10-02 07:21:00,59.5,58.1,29.93,SE,129,0.0,6.0,95,0.00,,,0.00,Wunderground v.1.15,2013-10-02 12:21:00,
2013-10-02 07:27:00,59.6,58.0,29.93,SE,129,0.0,2.0,95,0.00,,,0.00,weatherlink.com 1.10,2013-10-02 12:27:00,
2013-10-02 07:32:00,59.6,58.2,29.94,SE,129,0.0,6.0,95,0.00,,,0.00,Wunderground v.1.15,2013-10-02 12:32:00,
2013-10-02 07:38:00,59.7,58.3,29.93,SE,129,0.0,6.0,95,0.00,,,0.00,Wunderground v.1.15,2013-10-02 12:38:00,
2013-10-02 07:44:00,60.4,59.0,29.94,SE,129,0.0,6.0,95,0.00,,,0.00,Wunderground v.1.15,2013-10-02 12:44:00,
2013-10-02 07:49:00,61.0,59.6,29.93,SE,129,0.0,6.0,95,0.00,,,0.00,Wunderground v.1.15,2013-10-02 12:49:00,
2013-10-02 07:54:00,61.4,60.0,29.94,SE,129,0.0,6.0,95,0.00,,,0.00,Wunderground v.1.15,2013-10-02 12:54:00,
2013-10-02 07:59:00,61.6,60.2,29.94,SE,129,0.0,6.0,95,0.00,,,0.00,Wunderground v.1.15,2013-10-02 12:59:00,
2013-10-02 08:05:00,62.0,60.6,29.94,SE,131,0.0,6.0,95,0.00,,,0.00,Wunderground v.1.15,2013-10-02 13:05:00,
2013-10-02 08:10:00,62.3,61.0,29.93,SE,131,0.0,2.0,95,0.00,,,0.00,weatherlink.com 1.10,2013-10-02 13:10:00,
2013-10-02 08:15:00,62.7,61.2,29.94,SE,131,0.0,6.0,95,0.00,,,0.00,Wunderground v.1.15,2013-10-02 13:15:00,
2013-10-02 08:21:00,63.1,61.6,29.94,SSE,151,1.0,6.0,95,0.00,,,0.00,Wunderground v.1.15,2013-10-02 13:21:00,
2013-10-02 08:26:00,63.4,61.9,29.94,SE,135,3.0,6.0,95,0.00,,,0.00,Wunderground v.1.15,2013-10-02 13:26:00,
2013-10-02 08:31:00,63.8,62.3,29.94,SSE,154,2.0,6.0,95,0.00,,,0.00,Wunderground v.1.15,2013-10-02 13:31:00,
2013-10-02 08:37:00,64.2,62.7,29.93,ESE,121,2.0,6.0,95,0.00,,,0.00,Wunderground v.1.15,2013-10-02 13:37:00,
2013-10-02 08:42:00,64.5,63.0,29.93,ESE,120,2.0,6.0,95,0.00,,,0.00,Wunderground v.1.15,2013-10-02 13:42:00,
2013-10-02 08:47:00,64.8,63.3,29.93,ESE,117,1.0,6.0,95,0.00,,,0.00,Wunderground v.1.15,2013-10-02 13:47:00,
2013-10-02 08:52:00,65.2,63.4,29.94,SSE,155,1.0,6.0,94,0.00,,,0.00,Wunderground v.1.15,2013-10-02 13:52:00,
2013-10-02 08:58:00,65.9,63.8,29.93,SSW,204,1.0,6.0,93,0.00,,,0.00,Wunderground v.1.15,2013-10-02 13:58:00,
2013-10-02 09:03:00,66.4,63.4,29.94,East,91,2.0,7.0,90,0.00,,,0.00,Wunderground v.1.15,2013-10-02 14:03:00,
2013-10-02 09:08:00,67.0,63.6,29.94,SSE,151,3.0,7.0,89,0.00,,,0.00,Wunderground v.1.15,2013-10-02 14:08:00,
2013-10-02 09:14:00,67.6,63.6,29.94,SSE,155,4.0,10.0,87,0.00,,,0.00,Wunderground v.1.15,2013-10-02 14:14:00,
2013-10-02 09:19:00,68.2,63.9,29.94,SSE,158,5.0,10.0,86,0.00,,,0.00,Wunderground v.1.15,2013-10-02 14:19:00,
2013-10-02 09:25:00,69.1,64.1,29.94,ESE,122,4.0,6.0,84,0.00,,,0.00,Wunderground v.1.15,2013-10-02 14:25:00,
2013-10-02 09:30:00,69.5,63.8,29.94,SSE,163,3.0,6.0,82,0.00,,,0.00,Wunderground v.1.15,2013-10-02 14:30:00,
2013-10-02 09:35:00,69.4,63.7,29.94,South,183,4.0,6.0,82,0.00,,,0.00,Wunderground v.1.15,2013-10-02 14:35:00,
2013-10-02 09:41:00,69.5,63.4,29.94,SE,136,4.0,6.0,81,0.00,,,0.00,Wunderground v.1.15,2013-10-02 14:41:00,
2013-10-02 09:46:00,69.7,63.6,29.94,SE,145,3.0,6.0,81,0.00,,,0.00,Wunderground v.1.15,2013-10-02 14:46:00,
2013-10-02 09:52:00,70.1,64.0,29.94,South,178,3.0,6.0,81,0.00,,,0.00,Wunderground v.1.15,2013-10-02 14:52:00,
2013-10-02 09:58:00,70.7,63.9,29.93,SSW,204,4.0,6.0,79,0.00,,,0.00,Wunderground v.1.15,2013-10-02 14:58:00,
2013-10-02 10:03:00,71.0,64.2,29.93,ESE,123,3.0,6.0,79,0.00,,,0.00,Wunderground v.1.15,2013-10-02 15:03:00,
2013-10-02 10:08:00,71.5,64.3,29.93,SE,129,3.0,10.0,78,0.00,,,0.00,Wunderground v.1.15,2013-10-02 15:08:00,
2013-10-02 10:14:00,71.5,63.9,29.93,SE,133,5.0,7.0,77,0.00,,,0.00,Wunderground v.1.15,2013-10-02 15:14:00,
2013-10-02 10:19:00,71.4,63.8,29.93,SE,145,5.0,10.0,77,0.00,,,0.00,Wunderground v.1.15,2013-10-02 15:19:00,
2013-10-02 10:24:00,71.3,64.1,29.93,SSE,149,5.0,10.0,78,0.00,,,0.00,Wunderground v.1.15,2013-10-02 15:24:00,
2013-10-02 10:29:00,71.8,64.2,29.93,SE,141,6.0,10.0,77,0.00,,,0.00,Wunderground v.1.15,2013-10-02 15:29:00,
2013-10-02 10:33:00,72.2,64.6,29.93,South,169,5.0,6.0,77,0.00,,,0.00,Wunderground v.1.15,2013-10-02 15:33:00,
2013-10-02 10:39:00,72.4,64.4,29.93,SE,145,6.0,9.0,76,0.00,,,0.00,Wunderground v.1.15,2013-10-02 15:39:00,
2013-10-02 10:45:00,72.8,64.8,29.93,South,183,5.0,10.0,76,0.00,,,0.00,Wunderground v.1.15,2013-10-02 15:45:00,
2013-10-02 10:51:00,73.4,65.4,29.92,SE,128,3.0,8.0,76,0.00,,,0.00,Wunderground v.1.15,2013-10-02 15:51:00,
2013-10-02 10:56:00,74.3,65.5,29.92,SSE,149,4.0,9.0,74,0.00,,,0.00,Wunderground v.1.15,2013-10-02 15:56:00,
2013-10-02 11:01:00,75.3,66.0,29.92,SE,136,5.0,6.0,73,0.00,,,0.00,Wunderground v.1.15,2013-10-02 16:01:00,
2013-10-02 11:06:00,76.2,66.1,29.92,South,169,3.0,6.0,71,0.00,,,0.00,Wunderground v.1.15,2013-10-02 16:06:00,
2013-10-02 11:11:00,77.1,66.1,29.92,SSW,202,2.0,6.0,69,0.00,,,0.00,Wunderground v.1.15,2013-10-02 16:11:00,
2013-10-02 11:16:00,77.8,65.5,29.92,South,178,2.0,6.0,66,0.00,,,0.00,Wunderground v.1.15,2013-10-02 16:16:00,
2013-10-02 11:22:00,78.3,66.0,29.92,SW,216,3.0,6.0,66,0.00,,,0.00,Wunderground v.1.15,2013-10-02 16:22:00,
2013-10-02 11:27:00,78.8,65.6,29.92,SE,130,2.0,9.0,64,0.00,,,0.00,Wunderground v.1.15,2013-10-02 16:27:00,
2013-10-02 11:32:00,79.3,65.1,29.91,South,173,3.0,7.0,62,0.00,,,0.00,Wunderground v.1.15,2013-10-02 16:32:00,
2013-10-02 11:37:00,79.5,65.3,29.91,SE,136,4.0,7.0,62,0.00,,,0.00,Wunderground v.1.15,2013-10-02 16:37:00,
2013-10-02 11:43:00,79.9,65.2,29.91,SE,126,5.0,6.0,61,0.00,,,0.00,Wunderground v.1.15,2013-10-02 16:43:00,
2013-10-02 11:48:00,80.1,65.4,29.91,South,173,4.0,6.0,61,0.00,,,0.00,Wunderground v.1.15,2013-10-02 16:48:00,
2013-10-02 11:54:00,80.4,64.8,29.91,SSW,207,3.0,7.0,59,0.00,,,0.00,Wunderground v.1.15,2013-10-02 16:54:00,
2013-10-02 11:59:00,80.4,64.8,29.91,South,173,4.0,7.0,59,0.00,,,0.00,Wunderground v.1.15,2013-10-02 16:59:00,
2013-10-02 12:05:00,80.7,64.5,29.91,SSW,193,4.0,6.0,58,0.00,,,0.00,Wunderground v.1.15,2013-10-02 17:05:00,
2013-10-02 12:10:00,80.9,64.7,29.90,South,183,3.0,3.0,58,0.00,,,0.00,Wunderground v.1.15,2013-10-02 17:10:00,
2013-10-02 12:15:00,81.1,65.0,29.90,South,183,6.0,9.0,58,0.00,,,0.00,weatherlink.com 1.10,2013-10-02 17:15:00,
2013-10-02 12:21:00,81.2,64.5,29.90,SSE,154,3.0,6.0,57,0.00,,,0.00,Wunderground v.1.15,2013-10-02 17:21:00,
2013-10-02 12:26:00,81.4,64.7,29.90,SSW,200,4.0,6.0,57,0.00,,,0.00,Wunderground v.1.15,2013-10-02 17:26:00,
2013-10-02 12:32:00,81.6,64.9,29.90,SSE,168,4.0,6.0,57,0.00,,,0.00,Wunderground v.1.15,2013-10-02 17:32:00,
2013-10-02 12:37:00,81.9,65.2,29.90,SSE,148,4.0,6.0,57,0.00,,,0.00,Wunderground v.1.15,2013-10-02 17:37:00,
2013-10-02 12:42:00,82.3,65.0,29.90,SSE,160,3.0,6.0,56,0.00,,,0.00,Wunderground v.1.15,2013-10-02 17:42:00,
2013-10-02 12:47:00,82.7,64.9,29.89,South,190,4.0,9.0,55,0.00,,,0.00,Wunderground v.1.15,2013-10-02 17:47:00,
2013-10-02 12:53:00,82.8,64.5,29.89,South,191,5.0,8.0,54,0.00,,,0.00,Wunderground v.1.15,2013-10-02 17:53:00,
2013-10-02 12:58:00,82.9,63.5,29.89,SSW,195,5.0,12.0,52,0.00,,,0.00,Wunderground v.1.15,2013-10-02 17:58:00,
2013-10-02 13:04:00,82.9,64.0,29.89,SW,224,6.0,6.0,53,0.00,,,0.00,Wunderground v.1.15,2013-10-02 18:04:00,
2013-10-02 13:09:00,83.0,63.6,29.89,WSW,243,5.0,10.0,52,0.00,,,0.00,Wunderground v.1.15,2013-10-02 18:09:00,
2013-10-02 13:15:00,83.1,63.1,29.89,WSW,237,6.0,13.0,51,0.00,,,0.00,Wunderground v.1.15,2013-10-02 18:15:00,
2013-10-02 13:20:00,82.8,63.4,29.88,SSW,204,7.0,9.0,52,0.00,,,0.00,Wunderground v.1.15,2013-10-02 18:20:00,
2013-10-02 13:26:00,82.4,63.5,29.88,South,189,5.0,10.0,53,0.00,,,0.00,Wunderground v.1.15,2013-10-02 18:26:00,
2013-10-02 13:31:00,82.6,63.0,29.88,SSW,197,1.0,11.0,52,0.00,,,0.00,weatherlink.com 1.10,2013-10-02 18:31:00,
2013-10-02 13:37:00,83.2,63.2,29.88,SW,222,4.0,8.0,51,0.00,,,0.00,Wunderground v.1.15,2013-10-02 18:37:00,
2013-10-02 13:43:00,84.0,63.4,29.87,SSE,164,6.0,14.0,50,0.00,,,0.00,Wunderground v.1.15,2013-10-02 18:43:00,
2013-10-02 13:48:00,84.4,63.2,29.87,WSW,239,6.0,14.0,49,0.00,,,0.00,Wunderground v.1.15,2013-10-02 18:48:00,
2013-10-02 13:53:00,84.6,62.7,29.87,South,190,6.0,12.0,48,0.00,,,0.00,Wunderground v.1.15,2013-10-02 18:53:00,
2013-10-02 13:59:00,84.8,64.1,29.86,SSW,200,5.0,12.0,50,0.00,,,0.00,Wunderground v.1.15,2013-10-02 18:59:00,
2013-10-02 14:04:00,85.2,63.3,29.86,SSW,200,5.0,8.0,48,0.00,,,0.00,Wunderground v.1.15,2013-10-02 19:04:00,
2013-10-02 14:09:00,85.6,63.1,29.86,South,173,5.0,10.0,47,0.00,,,0.00,Wunderground v.1.15,2013-10-02 19:09:00,
2013-10-02 14:15:00,85.6,62.4,29.86,SW,214,5.0,13.0,46,0.00,,,0.00,Wunderground v.1.15,2013-10-02 19:15:00,
2013-10-02 14:20:00,85.8,63.2,29.85,SSE,154,5.0,6.0,47,0.00,,,0.00,Wunderground v.1.15,2013-10-02 19:20:00,
2013-10-02 14:25:00,85.9,62.1,29.85,SW,221,6.0,12.0,45,0.00,,,0.00,Wunderground v.1.15,2013-10-02 19:25:00,
2013-10-02 14:31:00,84.8,61.7,29.84,South,173,6.0,6.0,46,0.00,,,0.00,Wunderground v.1.15,2013-10-02 19:31:00,
2013-10-02 14:36:00,84.9,61.8,29.84,SSW,202,5.0,11.0,46,0.00,,,0.00,Wunderground v.1.15,2013-10-02 19:36:00,
2013-10-02 14:41:00,85.1,62.0,29.84,SSE,147,5.0,6.0,46,0.00,,,0.00,Wunderground v.1.15,2013-10-02 19:41:00,
2013-10-02 14:47:00,85.4,63.0,29.84,South,188,0.0,16.0,47,0.00,,,0.00,weatherlink.com 1.10,2013-10-02 19:47:00,
2013-10-02 14:52:00,85.6,61.2,29.84,SSW,192,6.0,10.0,44,0.00,,,0.00,Wunderground v.1.15,2013-10-02 19:52:00,
2013-10-02 14:58:00,85.5,61.7,29.83,SSW,192,6.0,12.0,45,0.00,,,0.00,Wunderground v.1.15,2013-10-02 19:58:00,
2013-10-02 15:03:00,85.5,62.4,29.83,SSE,160,6.0,13.0,46,0.00,,,0.00,Wunderground v.1.15,2013-10-02 20:03:00,
2013-10-02 15:08:00,85.7,61.9,29.83,SSW,195,7.0,17.0,45,0.00,,,0.00,Wunderground v.1.15,2013-10-02 20:08:00,
2013-10-02 15:13:00,85.7,61.9,29.83,SSE,158,8.0,12.0,45,0.00,,,0.00,Wunderground v.1.15,2013-10-02 20:13:00,
2013-10-02 15:19:00,85.5,61.1,29.83,South,173,7.0,12.0,44,0.00,,,0.00,Wunderground v.1.15,2013-10-02 20:19:00,
2013-10-02 15:25:00,85.3,60.9,29.82,South,183,6.0,14.0,44,0.00,,,0.00,Wunderground v.1.15,2013-10-02 20:25:00,
2013-10-02 15:30:00,85.4,61.0,29.82,SW,222,6.0,11.0,44,0.00,,,0.00,Wunderground v.1.15,2013-10-02 20:30:00,
2013-10-02 15:35:00,84.5,61.4,29.82,South,173,5.0,11.0,46,0.00,,,0.00,Wunderground v.1.15,2013-10-02 20:35:00,
2013-10-02 15:42:00,84.9,61.2,29.82,SE,136,5.0,8.0,45,0.00,,,0.00,Wunderground v.1.15,2013-10-02 20:42:00,
2013-10-02 15:48:00,85.1,61.0,29.82,SW,215,3.0,19.0,44,0.00,,,0.00,weatherlink.com 1.10,2013-10-02 20:48:00,
2013-10-02 15:53:00,84.7,61.0,29.82,SSE,164,5.0,6.0,45,0.00,,,0.00,Wunderground v.1.15,2013-10-02 20:53:00,
2013-10-02 15:59:00,85.0,61.9,29.82,SSW,208,5.0,9.0,46,0.00,,,0.00,Wunderground v.1.15,2013-10-02 20:59:00,
2013-10-02 16:04:00,85.6,62.4,29.82,SSW,200,4.0,10.0,46,0.00,,,0.00,Wunderground v.1.15,2013-10-02 21:04:00,
2013-10-02 16:10:00,86.1,62.3,29.82,South,187,6.0,6.0,45,0.00,,,0.00,Wunderground v.1.15,2013-10-02 21:10:00,
2013-10-02 16:15:00,86.4,61.9,29.82,SSW,193,5.0,8.0,44,0.00,,,0.00,Wunderground v.1.15,2013-10-02 21:15:00,
2013-10-02 16:21:00,86.5,62.0,29.81,SSE,168,4.0,6.0,44,0.00,,,0.00,Wunderground v.1.15,2013-10-02 21:21:00,
2013-10-02 16:26:00,86.0,61.5,29.81,ESE,119,4.0,6.0,44,0.00,,,0.00,Wunderground v.1.15,2013-10-02 21:26:00,
2013-10-02 16:31:00,85.7,60.6,29.81,SSW,200,5.0,11.0,43,0.00,,,0.00,Wunderground v.1.15,2013-10-02 21:31:00,
2013-10-02 16:37:00,85.6,61.2,29.81,SE,138,6.0,11.0,44,0.00,,,0.00,Wunderground v.1.15,2013-10-02 21:37:00,
2013-10-02 16:44:00,85.8,62.0,29.81,South,189,4.0,9.0,45,0.00,,,0.00,Wunderground v.1.15,2013-10-02 21:44:00,
2013-10-02 16:49:00,86.0,61.5,29.81,South,183,4.0,9.0,44,0.00,,,0.00,Wunderground v.1.15,2013-10-02 21:49:00,
2013-10-02 16:54:00,86.1,60.3,29.81,SSW,201,4.0,9.0,42,0.00,,,0.00,Wunderground v.1.15,2013-10-02 21:54:00,
2013-10-02 16:59:00,85.6,61.2,29.81,SE,140,5.0,10.0,44,0.00,,,0.00,Wunderground v.1.15,2013-10-02 21:59:00,
2013-10-02 17:05:00,85.7,61.3,29.81,SSW,212,4.0,6.0,44,0.00,,,0.00,Wunderground v.1.15,2013-10-02 22:05:00,
2013-10-02 17:10:00,85.6,61.8,29.81,SSW,197,4.0,4.0,45,0.00,,,0.00,Wunderground v.1.15,2013-10-02 22:10:00,
2013-10-02 17:15:00,85.5,61.7,29.81,SE,135,5.0,7.0,45,0.00,,,0.00,Wunderground v.1.15,2013-10-02 22:15:00,
2013-10-02 17:21:00,85.2,62.1,29.81,South,183,5.0,6.0,46,0.00,,,0.00,Wunderground v.1.15,2013-10-02 22:21:00,
2013-10-02 17:26:00,84.7,61.6,29.81,SSW,208,5.0,12.0,46,0.00,,,0.00,Wunderground v.1.15,2013-10-02 22:26:00,
2013-10-02 17:31:00,84.4,62.0,29.81,SE,138,4.0,6.0,47,0.00,,,0.00,Wunderground v.1.15,2013-10-02 22:31:00,
2013-10-02 17:36:00,84.3,61.9,29.80,South,183,4.0,6.0,47,0.00,,,0.00,Wunderground v.1.15,2013-10-02 22:36:00,
2013-10-02 17:41:00,84.4,62.6,29.81,SSE,156,2.0,6.0,48,0.00,,,0.00,Wunderground v.1.15,2013-10-02 22:41:00,
2013-10-02 17:47:00,84.4,62.6,29.81,SSW,211,1.0,7.0,48,0.00,,,0.00,Wunderground v.1.15,2013-10-02 22:47:00,
2013-10-02 17:52:00,83.8,62.6,29.81,SSW,200,2.0,4.0,49,0.00,,,0.00,Wunderground v.1.15,2013-10-02 22:52:00,
2013-10-02 17:57:00,83.2,62.6,29.81,South,173,3.0,7.0,50,0.00,,,0.00,Wunderground v.1.15,2013-10-02 22:57:00,
2013-10-02 18:02:00,83.0,62.4,29.81,South,187,2.0,6.0,50,0.00,,,0.00,Wunderground v.1.15,2013-10-02 23:02:00,
2013-10-02 18:07:00,82.8,63.0,29.81,South,191,2.0,11.0,51,0.00,,,0.00,weatherlink.com 1.10,2013-10-02 23:07:00,
2013-10-02 18:14:00,82.3,62.4,29.81,SSE,154,2.0,6.0,51,0.00,,,0.00,Wunderground v.1.15,2013-10-02 23:14:00,
2013-10-02 18:19:00,82.2,62.8,29.81,SSE,166,1.0,6.0,52,0.00,,,0.00,Wunderground v.1.15,2013-10-02 23:19:00,
2013-10-02 18:24:00,82.0,62.6,29.81,SSE,168,3.0,7.0,52,0.00,,,0.00,Wunderground v.1.15,2013-10-02 23:24:00,
2013-10-02 18:29:00,81.9,62.5,29.81,South,183,3.0,7.0,52,0.00,,,0.00,Wunderground v.1.15,2013-10-02 23:29:00,
2013-10-02 18:34:00,81.8,62.5,29.81,South,178,2.0,6.0,52,0.00,,,0.00,Wunderground v.1.15,2013-10-02 23:34:00,
2013-10-02 18:39:00,81.5,62.7,29.81,SSE,151,2.0,6.0,53,0.00,,,0.00,Wunderground v.1.15,2013-10-02 23:39:00,
2013-10-02 18:45:00,81.2,62.4,29.81,South,183,1.0,6.0,53,0.00,,,0.00,Wunderground v.1.15,2013-10-02 23:45:00,
2013-10-02 18:50:00,80.8,62.1,29.81,South,178,0.0,6.0,53,0.00,,,0.00,Wunderground v.1.15,2013-10-02 23:50:00,
2013-10-02 18:54:00,80.5,62.3,29.81,South,178,0.0,6.0,54,0.00,,,0.00,Wunderground v.1.15,2013-10-02 23:54:00,
2013-10-02 19:00:00,80.0,62.4,29.82,South,178,0.0,6.0,55,0.00,,,0.00,Wunderground v.1.15,2013-10-03 00:00:00,
2013-10-02 19:06:00,79.4,62.0,29.82,South,178,0.0,1.0,55,0.00,,,0.00,weatherlink.com 1.10,2013-10-03 00:06:00,
2013-10-02 19:11:00,78.9,61.9,29.82,South,173,0.0,6.0,56,0.00,,,0.00,Wunderground v.1.15,2013-10-03 00:11:00,
2013-10-02 19:16:00,78.5,62.0,29.82,South,173,0.0,6.0,57,0.00,,,0.00,Wunderground v.1.15,2013-10-03 00:16:00,
2013-10-02 19:21:00,78.0,61.5,29.82,South,173,0.0,6.0,57,0.00,,,0.00,Wunderground v.1.15,2013-10-03 00:21:00,
2013-10-02 19:28:00,77.3,61.9,29.82,South,173,0.0,6.0,59,0.00,,,0.00,Wunderground v.1.15,2013-10-03 00:28:00,
2013-10-02 19:33:00,76.8,61.9,29.82,South,173,0.0,6.0,60,0.00,,,0.00,Wunderground v.1.15,2013-10-03 00:33:00,
2013-10-02 19:38:00,76.4,62.0,29.82,South,173,0.0,6.0,61,0.00,,,0.00,Wunderground v.1.15,2013-10-03 00:38:00,
2013-10-02 19:43:00,75.9,61.9,29.82,South,173,0.0,6.0,62,0.00,,,0.00,Wunderground v.1.15,2013-10-03 00:43:00,
2013-10-02 19:49:00,75.5,62.0,29.81,South,173,0.0,6.0,63,0.00,,,0.00,Wunderground v.1.15,2013-10-03 00:49:00,
2013-10-02 19:54:00,75.1,62.1,29.81,SSE,154,0.0,6.0,64,0.00,,,0.00,Wunderground v.1.15,2013-10-03 00:54:00,
2013-10-02 20:00:00,74.9,61.9,29.82,SSE,156,1.0,1.0,64,0.00,,,0.00,Wunderground v.1.15,2013-10-03 01:00:00,
2013-10-02 20:05:00,74.7,62.1,29.82,SSE,156,0.0,6.0,65,0.00,,,0.00,Wunderground v.1.15,2013-10-03 01:05:00,
2013-10-02 20:11:00,74.2,62.1,29.82,SSE,156,0.0,6.0,66,0.00,,,0.00,Wunderground v.1.15,2013-10-03 01:11:00,
2013-10-02 20:16:00,73.8,61.7,29.82,SSE,156,0.0,6.0,66,0.00,,,0.00,Wunderground v.1.15,2013-10-03 01:16:00,
2013-10-02 20:22:00,73.4,61.8,29.82,SSE,156,0.0,6.0,67,0.00,,,0.00,Wunderground v.1.15,2013-10-03 01:22:00,
2013-10-02 20:27:00,73.0,61.8,29.82,SSE,156,0.0,6.0,68,0.00,,,0.00,Wunderground v.1.15,2013-10-03 01:27:00,
2013-10-02 20:32:00,72.8,61.6,29.82,SSE,164,0.0,6.0,68,0.00,,,0.00,Wunderground v.1.15,2013-10-03 01:32:00,
2013-10-02 20:38:00,72.7,62.0,29.82,SSE,164,0.0,4.0,69,0.00,,,0.00,weatherlink.com 1.10,2013-10-03 01:38:00,
2013-10-02 20:43:00,72.5,61.7,29.82,SSE,164,0.0,6.0,69,0.00,,,0.00,Wunderground v.1.15,2013-10-03 01:43:00,
2013-10-02 20:49:00,72.5,61.7,29.82,SSE,160,0.0,6.0,69,0.00,,,0.00,Wunderground v.1.15,2013-10-03 01:49:00,
2013-10-02 20:55:00,72.4,61.7,29.82,SSE,159,0.0,6.0,69,0.00,,,0.00,Wunderground v.1.15,2013-10-03 01:55:00,
2013-10-02 21:00:00,72.4,61.7,29.82,SSE,164,0.0,6.0,69,0.00,,,0.00,Wunderground v.1.15,2013-10-03 02:00:00,
2013-10-02 21:06:00,72.5,61.7,29.82,SSE,166,0.0,6.0,69,0.00,,,0.00,Wunderground v.1.15,2013-10-03 02:06:00,
2013-10-02 21:07:00,72.5,61.7,29.82,SSE,166,0.0,6.0,69,0.00,,,0.00,Wunderground v.1.15,2013-10-03 02:07:00,
2013-10-02 21:13:00,72.4,61.7,29.82,SSE,151,0.0,6.0,69,0.00,,,0.00,Wunderground v.1.15,2013-10-03 02:13:00,
2013-10-02 21:18:00,72.4,61.7,29.82,SSE,164,1.0,6.0,69,0.00,,,0.00,Wunderground v.1.15,2013-10-03 02:18:00,
2013-10-02 21:24:00,72.4,61.7,29.82,SSE,164,0.0,6.0,69,0.00,,,0.00,Wunderground v.1.15,2013-10-03 02:24:00,
2013-10-02 21:29:00,72.4,61.7,29.82,SSE,160,0.0,6.0,69,0.00,,,0.00,Wunderground v.1.15,2013-10-03 02:29:00,
2013-10-02 21:34:00,72.4,61.7,29.82,South,173,0.0,7.0,69,0.00,,,0.00,Wunderground v.1.15,2013-10-03 02:34:00,
2013-10-02 21:40:00,72.3,62.0,29.82,South,169,0.0,7.0,69,0.00,,,0.00,weatherlink.com 1.10,2013-10-03 02:40:00,
2013-10-02 21:46:00,72.3,61.6,29.83,SSE,151,1.0,6.0,69,0.00,,,0.00,Wunderground v.1.15,2013-10-03 02:46:00,
2013-10-02 21:51:00,72.2,61.9,29.83,SSE,163,0.0,6.0,70,0.00,,,0.00,Wunderground v.1.15,2013-10-03 02:51:00,
2013-10-02 21:57:00,72.2,61.9,29.82,SSE,168,0.0,6.0,70,0.00,,,0.00,Wunderground v.1.15,2013-10-03 02:57:00,
2013-10-02 22:02:00,72.2,61.9,29.82,South,178,0.0,6.0,70,0.00,,,0.00,Wunderground v.1.15,2013-10-03 03:02:00,
2013-10-02 22:08:00,72.2,62.0,29.82,South,173,3.0,5.0,70,0.00,,,0.00,weatherlink.com 1.10,2013-10-03 03:08:00,
2013-10-02 22:13:00,72.1,61.8,29.82,South,173,0.0,6.0,70,0.00,,,0.00,Wunderground v.1.15,2013-10-03 03:13:00,
2013-10-02 22:18:00,71.9,61.6,29.82,South,173,0.0,6.0,70,0.00,,,0.00,Wunderground v.1.15,2013-10-03 03:18:00,
2013-10-02 22:23:00,71.9,62.0,29.82,South,173,0.0,6.0,71,0.00,,,0.00,Wunderground v.1.15,2013-10-03 03:23:00,
2013-10-02 22:29:00,71.8,61.9,29.82,SSE,151,1.0,6.0,71,0.00,,,0.00,Wunderground v.1.15,2013-10-03 03:29:00,
2013-10-02 22:34:00,71.8,61.9,29.82,SSE,151,2.0,6.0,71,0.00,,,0.00,Wunderground v.1.15,2013-10-03 03:34:00,
2013-10-02 22:40:00,71.7,62.0,29.82,South,178,1.0,9.0,72,0.00,,,0.00,weatherlink.com 1.10,2013-10-03 03:40:00,
2013-10-02 22:46:00,71.5,62.0,29.82,South,173,1.0,6.0,72,0.00,,,0.00,Wunderground v.1.15,2013-10-03 03:46:00,
2013-10-02 22:52:00,71.5,62.4,29.82,SE,146,1.0,6.0,73,0.00,,,0.00,Wunderground v.1.15,2013-10-03 03:52:00,
2013-10-02 22:58:00,71.6,62.5,29.81,SSE,168,1.0,6.0,73,0.00,,,0.00,Wunderground v.1.15,2013-10-03 03:58:00,
2013-10-02 23:01:00,71.7,62.6,29.81,South,173,1.0,6.0,73,0.00,,,0.00,Wunderground v.1.15,2013-10-03 04:01:00,
2013-10-02 23:02:00,71.6,62.5,29.81,South,169,1.0,6.0,73,0.00,,,0.00,Wunderground v.1.15,2013-10-03 04:02:00,
2013-10-02 23:03:00,71.6,62.5,29.81,South,173,1.0,6.0,73,0.00,,,0.00,Wunderground v.1.15,2013-10-03 04:03:00,
2013-10-02 23:08:00,71.6,62.5,29.81,South,191,1.0,6.0,73,0.00,,,0.00,Wunderground v.1.15,2013-10-03 04:08:00,
2013-10-02 23:10:00,71.6,62.5,29.81,SSW,195,1.0,1.0,73,0.00,,,0.00,Wunderground v.1.15,2013-10-03 04:10:00,
2013-10-02 23:15:00,71.6,62.5,29.82,South,173,1.0,6.0,73,0.00,,,0.00,Wunderground v.1.15,2013-10-03 04:15:00,
2013-10-02 23:20:00,71.6,62.9,29.82,SSE,166,1.0,1.0,74,0.00,,,0.00,Wunderground v.1.15,2013-10-03 04:20:00,
2013-10-02 23:26:00,71.7,63.0,29.82,SE,142,1.0,6.0,74,0.00,,,0.00,Wunderground v.1.15,2013-10-03 04:26:00,
2013-10-02 23:31:00,71.8,63.1,29.82,SW,221,0.0,6.0,74,0.00,,,0.00,Wunderground v.1.15,2013-10-03 04:31:00,
2013-10-02 23:33:00,71.8,63.1,29.82,SW,214,1.0,6.0,74,0.00,,,0.00,Wunderground v.1.15,2013-10-03 04:33:00,
2013-10-02 23:38:00,71.9,63.2,29.82,South,173,1.0,6.0,74,0.00,,,0.00,Wunderground v.1.15,2013-10-03 04:38:00,
2013-10-02 23:44:00,72.0,63.3,29.82,SSE,160,1.0,6.0,74,0.00,,,0.00,Wunderground v.1.15,2013-10-03 04:44:00,
2013-10-02 23:49:00,72.0,63.3,29.81,SSE,168,1.0,6.0,74,0.00,,,0.00,Wunderground v.1.15,2013-10-03 04:49:00,
2013-10-02 23:55:00,72.0,63.0,29.81,South,190,0.0,6.0,74,0.00,,,0.00,weatherlink.com 1.10,2013-10-03 04:55:00,